Погода Большерецкий

Погода Большерецкий : погода сейчас, прогноз погоды и архив. Всё, что Вы хотите узнать о погоде Большерецкий!

Поиск расширенной информации на нашем сайте:

Другие новости

Новости СМИ2

Главная страница сайта

Новости сайта

03.07.2017

Напоминаем, что на нашем специализированном сайте Метеоцентр.Азия вы можете получить высокодетализированные автоматические прогнозы погоды по пунктам России, СНГ и мира в авиационном формате (включающие направление и скорость ветра, видимость, явления погоды, количество и форму облачности, нижнюю и верхнюю границу облачности).


Погода Большерецкий - сегодня

Время (UTC), дата Ветер
(°,м/с) 
Видим.   Явления Облачность Т
(°С)
Тd
(°С)
f(%) Тe
(°С)
Pmin
(гПа)
dP
(гПа)
Po
(мм)
O2
(г/м3)
Тmin Tmax R s Состояние
почвы
09 12.11.18 080 (В) 11-19{22}  20000 м    10/10 600 м кучево-дожд. 
[Cb cap]
+3.7 -3 62 -1  1002.7  0.1  749  298    +3.7  0.0     
21 12.11.18 100 (В) 4{11}  20000 м    10/6 600 м средняя 
[Sc|Ac und]
+3.9 -0.8 71 +2  1006.8  1.8  752  299  +3.4      мокрый или
старый снег
50-90% 
03 13.11.18 180 (Ю) 20000 м  в посл. час ливневой дождь  9/6 600 м кучево-дожд., средняя 
[Cb cap|Ac trans]
+4.9 +2.5 84 +4  1009.5  0.8  754  298           
06 13.11.18 140 (ЮВ) 20000 м  {ливн. осадки}  9/9 600 м кучево-дожд. 
[Cb cap]
+3.6 +2.5 92 +2  1010.6  1.1  755  300           
12 13.11.18 130 (ЮВ) 20000 м    10/10 600 м кучево-дожд. 
[Cb cap]
+2.4 +1.2 92 +2  1012.7  0.9  757  302           
15 13.11.18 130 (ЮВ) 20000 м    10/10 600 м кучево-дожд. 
[Cb cap]
+2.5 +1.3 92 +1  1013.3  0.9  757  302           
18 13.11.18 070 (В) 20000 м    10/10 600 м кучево-дожд. 
[Cb cap]
+1.3 +0.8 96 +1  1013.7  0.4  758  304           
09 14.11.18 080 (В) 7-11{14}  20000 м    10/10 600 м 
[Sc]
+3.6 -1.4 70 1014.1  0.5  758  302    +5.7  0.3     
21 14.11.18 070 (В) 9-13{15}  20000 м    8/4 600 м средняя, верхняя 
[Sc|Ac lent|Ci fib]
+1.9 -4.4 63 -2  1012.9  757  303  +1.8      мокрый или
старый снег
10-40% 
12 15.11.18 080 (В) 3{12}  20000 м    10/10 600 м 
[Sc]
+1 -5.4 62 -1  1009.7  -0.4  754  303           
15 15.11.18 080 (В) 20000 м    10/10 600 м 
[Sc]
-0.6 -6.6 64 -2  1008.8  -0.9  754  305           
18 15.11.18 080 (В) 20000 м    4/4 600 м 
[Sc]
-2.3 -6.7 72 -3  1009.2  0.3  754  307           
03 16.11.18 350 (С) 20000 м    4/4 600 м 
[Sc]
+2.7 -4.2 60 +1  1008.3  -0.5  753  301           
06 16.11.18 340 (С) 20000 м    3/3 600 м 
[Sc]
-1.2 -5.5 73 -2  1009.2  0.8  754  306           
12 16.11.18 100 (В) 20000 м    10/0 средняя 
[Ac As]
-2 -5.6 76 -1  1010.9  0.7  755  307           
15 16.11.18 090 (В) 20000 м    10/0 средняя 
[Ac As]
-2.4 -5.8 77 -2  1011.4  0.4  756  308           
18 16.11.18 110 (В) 20000 м    10/0 средняя 
[Ac As]
-2.3 -5.4 79 -3  1011.8  0.4  756  308           
00 17.11.18 150 (ЮВ) 20000 м    9/9 600 м 
[Sc]
+1.1 -1.7 82 1012.4  0.1  756  304           
03 17.11.18 150 (ЮВ) 20000 м    9/9 600 м кучево-дожд. 
[Cb cap]
+2.4 -1.1 78 1010.8  -1.5  755  302           
06 17.11.18 140 (ЮВ) 20000 м  слаб. ливневой дождь  10/10 600 м кучево-дожд. 
[Cb cap]
+1.7 -0.5 85 1010.3  -0.5  755  302           
12 17.11.18 090 (В) 20000 м  слаб. ливневой снег  10/10 600 м кучево-дожд. 
[Cb cap]
+0.3 -0.3 96 -1  1007.9  -1.9  753  303           
15 17.11.18 080 (В) 20000 м  слаб. ливневой дождь  10/10 600 м кучево-дожд. 
[Cb cap]
+0.8 +0.3 96 -1  1004.7  -3.2  751  302           
18 17.11.18 090 (В) 20000 м  слаб. ливневой дождь  10/10 600 м кучево-дожд. 
[Cb cap]
+2.3 +1.6 95 1000.8  -3.9  748  299           
21 17.11.18 140 (ЮВ) 6-12{15}  10 км  слаб. ливневой дождь  10/10 600 м кучево-дожд. 
[Cb cap]
+3.7 +2.6 92 +1  998.7  -2  746  296  +0.2       
09 18.11.18 240 (ЮЗ) 4{13}  10 км  слаб. ливневой снег  8/8 600 м кучево-дожд. 
[Cb cap]
-0.5 -2.9 84 -3  1006.3  1.7  752  304    +3.7     
Время (UTC), дата Ветер
(°,м/с) 
Видим.   Явления Облачность Т
(°С)
Тd
(°С)
f(%) Тe
(°С)
Pmin
(гПа)
dP
(гПа)
Po
(мм)
O2
(г/м3)
Тmin Tmax R s Состояние
почвы

Для получения пояснительной информации подведите курсор к названию столбца.

ПОГОДА Большерецкий - архив

Всё, что Вы хотите узнать о погоде Большерецкий - удобно и подробно!

Выберите нужную дату (начиная с 1 января 2015* года) и нажмите кнопку "Найти".
Будут отображены архивные сводки погоды по пункту Большерецкий, начиная с указанной даты.


Отображать данные в формате CSV (для использования в таблицах Excel)


Внимание! Наш архив погоды предназначен исключительно для личного некоммерческого использования в познавательных целях. Если Вам необходимы официальные справки о состоянии погоды (для производственных, юридических, коммерческих и т.п. целей), обращайтесь в органы Росгидромета.

*Примечание: данная дата относится к архиву по метеостанциям СССР (Россия, СНГ, Балтия).
Архив по метеостанциям Зарубежной Европы и Азии (кроме Китая) хранится 10 дней, по другим регионам земного шара (Китай, Африка, Америка, Австралия, Океания) - 1 день.

Большерецкий - район местоположения метеостанции


Название, широта, долгота, высота метеостанции:
Большерецкий 52.9°ш. 156.6°д. 27 м над ур. моря [Российская Федерация]

Дополнительная информация

В oтличие oт бoльшинства пoгoдных сайтoв мы публикуем пoдрoбную метеoинфoрмацию в детальнoм прoфессиoнальнoм фoрмате.

Характеристики температуры и влажнoсти вoздуха измеряются на высoте 2 м в тени вдали oт зданий и деревьев.
Скoрoсть ветра измеряется на высoте 10 м (на урoвне рoста челoвека скoрoсть ветра ниже в 1.5-2 раза). Если метеoстанция нахoдится в гoрoде или в лесу, тo скoрoсть ветра занижена на 2-4 м/с пo сравнению с oткрытым местoм. Скoрoсть ветра над акватoриями крупных рек и oзёр, а также на вершинах хoлмoв на 2-5 м/с выше, чем в oбычных услoвиях.
Атмoсфернoе давление в разных тoчках местнoсти мoжет значительнo oтличаться oт давления на метеoстанции, в зависимoсти oт услoвий рельефа (при пoдъёме на 10 м давление пoнижается примернo на 1 мм рт.ст.).